Regional Weather Roundup
Issued by NWS

Home | Current Version | Previous Version | Graphics & Text | Print | Product List | Glossary On
Versions: 1 2 3 4 5 6 7 8 9 10 11 12 13 14 15 16 17 18 19 20 21 22 23 24 25 26 27 28 29 30 31 32 33 34 35 36 37 38 39 40 41 42 43 44 45 46 47 48 49 50
000
ASUS43 KLSX 161359
RWRMO

WEATHER SUMMARY FOR MISSOURI
NATIONAL WEATHER SERVICE SPRINGFIELD MO
900 AM CDT WED APR 16 2014

NOTE: "FAIR" INDICATES FEW OR NO CLOUDS BELOW 12,000 FEET WITH NO
       SIGNIFICANT WEATHER AND/OR OBSTRUCTIONS TO VISIBILITY.
       CURRENT SKY AND/OR WEATHER CONDITIONS ARE NOT AVAILABLE FOR
       CHILLICOTHE AND FARMINGTON.

MOZ001>031-035>038-043-044-053-054-161500-
...NORTHERN AND WESTERN MISSOURI...

CITY           SKY/WX    TMP DP  RH WIND       PRES   REMARKS
KANSAS CTY INT PTSUNNY   51  27  39 S22G37    29.93F
KANSAS C DTWN  SUNNY     51  28  41 S17       29.96F
LEE`S SUMMIT   MOSUNNY   47  28  47 S18G28    29.97F
ST JOSEPH      MOSUNNY   51  28  41 S21G28    29.91F
KIRKSVILLE     SUNNY     47  27  45 S18       30.06S

$$
MOZ066>068-077>081-088>096-101>105-161500-
...SOUTHWEST MISSOURI...

CITY           SKY/WX    TMP DP  RH WIND       PRES   REMARKS
SPRINGFIELD    PTSUNNY   44  31  60 S17G24    30.10S
JOPLIN         PTSUNNY   49  30  48 S18G28    30.05F

$$
MOZ032>034-039>042-045>050-055>058-069>072-161500-
...CENTRAL MISSOURI...

CITY           SKY/WX    TMP DP  RH WIND       PRES   REMARKS
COLUMBIA       SUNNY     45  30  55 S18       30.12S
JEFFERSON CITY SUNNY     45  29  53 S13G23    30.15S
ROLLA          MOSUNNY   43  27  53 S20       30.16R
SEDALIA        MOSUNNY   50  31  48 S22       30.07S
OSAGE BEACH    MOSUNNY   45  28  53 S13       30.15S

$$
MOZ051-052-059>065-161500-
...EAST CENTRAL MISSOURI...

CITY           SKY/WX    TMP DP  RH WIND       PRES   REMARKS
ST LOUIS INTL  PTSUNNY   44  24  45 SE21      30.25R
SPIRIT OF STL  PTSUNNY   43  22  43 S14G21    30.23R
ST CHARLES     MOSUNNY   43  27  53 S18       30.24R

$$
MOZ072>076-082>087-097>100-106>115-161500-
...SOUTH CENTRAL AND SOUTHEAST MISSOURI...

CITY           SKY/WX    TMP DP  RH WIND       PRES   REMARKS
CAPE GIRARDEAU MOSUNNY   43  27  53 SE15      30.32R
FARMINGTON     SUNNY     43  27  52 SE16      30.27S
POPLAR BLUFF   SUNNY     43  27  53 MISG      30.30R
WEST PLAINS    MOSUNNY   41  24  51 S14G23    30.22R

$$



USA.gov is the U.S. government's official web portal to all federal, state and local government web resources and services.